Year,Month,Day,Hour,Minute,Value (Times are PST for temperature in C)
2013,09,18,00,00,11.20
2013,09,18,00,01,11.10
2013,09,18,00,02,11.10
2013,09,18,00,03,11.10
2013,09,18,00,04,11.10
2013,09,18,00,05,11.00
2013,09,18,00,06,11.00
2013,09,18,00,07,11.00
2013,09,18,00,08,11.00
2013,09,18,00,09,11.00
2013,09,18,00,10,11.00
2013,09,18,00,11,11.00
2013,09,18,00,12,11.00
2013,09,18,00,13,11.00
2013,09,18,00,14,11.00
2013,09,18,00,15,11.00
2013,09,18,00,16,11.00
2013,09,18,00,17,11.10
2013,09,18,00,18,11.10
2013,09,18,00,19,11.10
2013,09,18,00,20,11.10
2013,09,18,00,21,11.10
2013,09,18,00,22,11.10
2013,09,18,00,23,11.10
2013,09,18,00,24,11.10
2013,09,18,00,25,11.10
2013,09,18,00,26,11.10
2013,09,18,00,27,11.10
2013,09,18,00,28,11.10
2013,09,18,00,29,11.10
2013,09,18,00,30,11.10
2013,09,18,00,31,11.10
2013,09,18,00,32,11.20
2013,09,18,00,33,11.20
2013,09,18,00,34,11.20
2013,09,18,00,35,11.20
2013,09,18,00,36,11.20
2013,09,18,00,37,11.20
2013,09,18,00,38,11.20
2013,09,18,00,39,11.20
2013,09,18,00,40,11.20
2013,09,18,00,41,11.20
2013,09,18,00,42,11.20
2013,09,18,00,43,11.20
2013,09,18,00,44,11.20
2013,09,18,00,45,11.20
2013,09,18,00,46,11.20
2013,09,18,00,47,11.20
2013,09,18,00,48,11.20
2013,09,18,00,49,11.20
2013,09,18,00,50,11.20
2013,09,18,00,51,11.20
2013,09,18,00,52,11.20
2013,09,18,00,53,11.20
2013,09,18,00,54,11.10
2013,09,18,00,55,11.10
2013,09,18,00,56,11.10
2013,09,18,00,57,11.10
2013,09,18,00,58,11.10
2013,09,18,00,59,11.10
2013,09,18,01,00,11.10
2013,09,18,01,01,11.10
2013,09,18,01,02,11.10
2013,09,18,01,03,11.20
2013,09,18,01,04,11.20
2013,09,18,01,05,11.20
2013,09,18,01,06,11.20
2013,09,18,01,07,11.20
2013,09,18,01,08,11.20
2013,09,18,01,09,11.20
2013,09,18,01,10,11.20
2013,09,18,01,11,11.20
2013,09,18,01,12,11.20
2013,09,18,01,13,11.20
2013,09,18,01,14,11.20
2013,09,18,01,15,11.20
2013,09,18,01,16,11.20
2013,09,18,01,17,11.20
2013,09,18,01,18,11.20
2013,09,18,01,19,11.10
2013,09,18,01,20,11.10
2013,09,18,01,21,11.10
2013,09,18,01,22,11.10
2013,09,18,01,23,11.00
2013,09,18,01,24,11.00
2013,09,18,01,25,11.00
2013,09,18,01,26,11.00
2013,09,18,01,27,11.00
2013,09,18,01,28,11.00
2013,09,18,01,29,11.00
2013,09,18,01,30,11.10
2013,09,18,01,31,11.10
2013,09,18,01,32,11.10
2013,09,18,01,33,11.10
2013,09,18,01,34,11.10
2013,09,18,01,35,11.10
2013,09,18,01,36,11.10
2013,09,18,01,37,11.10
2013,09,18,01,38,11.10
2013,09,18,01,39,11.10
2013,09,18,01,40,11.10
2013,09,18,01,41,11.10
2013,09,18,01,42,11.10
2013,09,18,01,43,11.10
2013,09,18,01,44,11.10
2013,09,18,01,45,11.10
2013,09,18,01,46,11.10
2013,09,18,01,47,11.10
2013,09,18,01,48,11.10
2013,09,18,01,49,11.00
2013,09,18,01,50,11.00
2013,09,18,01,51,11.00
2013,09,18,01,52,11.00
2013,09,18,01,53,10.90
2013,09,18,01,54,10.90
2013,09,18,01,55,10.90
2013,09,18,01,56,10.90
2013,09,18,01,57,10.90
2013,09,18,01,58,10.90
2013,09,18,01,59,10.90
2013,09,18,02,00,10.80
2013,09,18,02,01,10.80
2013,09,18,02,02,10.80
2013,09,18,02,03,10.80
2013,09,18,02,04,10.80
2013,09,18,02,05,10.80
2013,09,18,02,06,10.80
2013,09,18,02,07,10.80
2013,09,18,02,08,10.80
2013,09,18,02,09,10.80
2013,09,18,02,10,10.80
2013,09,18,02,11,10.80
2013,09,18,02,12,10.80
2013,09,18,02,13,10.80
2013,09,18,02,14,10.80
2013,09,18,02,15,10.80
2013,09,18,02,16,10.80
2013,09,18,02,17,10.80
2013,09,18,02,18,10.70
2013,09,18,02,19,10.70
2013,09,18,02,20,10.70
2013,09,18,02,21,10.70
2013,09,18,02,22,10.70
2013,09,18,02,23,10.70
2013,09,18,02,24,10.70
2013,09,18,02,25,10.70
2013,09,18,02,26,10.70
2013,09,18,02,27,10.70
2013,09,18,02,28,10.70
2013,09,18,02,29,10.70
2013,09,18,02,30,10.70
2013,09,18,02,31,10.70
2013,09,18,02,32,10.70
2013,09,18,02,33,10.70
2013,09,18,02,34,10.70
2013,09,18,02,35,10.70
2013,09,18,02,36,10.70
2013,09,18,02,37,10.80
2013,09,18,02,38,10.80
2013,09,18,02,39,10.80
2013,09,18,02,40,10.80
2013,09,18,02,41,10.80
2013,09,18,02,42,10.80
2013,09,18,02,43,10.80
2013,09,18,02,44,10.80
2013,09,18,02,45,10.80
2013,09,18,02,46,10.80
2013,09,18,02,47,10.80
2013,09,18,02,48,10.80
2013,09,18,02,49,10.80
2013,09,18,02,50,10.80
2013,09,18,02,51,10.80
2013,09,18,02,52,10.80
2013,09,18,02,53,10.80
2013,09,18,02,54,10.80
2013,09,18,02,55,10.80
2013,09,18,02,56,10.80
2013,09,18,02,57,10.80
2013,09,18,02,58,10.80
2013,09,18,02,59,10.80
2013,09,18,03,00,10.80
2013,09,18,03,01,10.80
2013,09,18,03,02,10.80
2013,09,18,03,03,10.80
2013,09,18,03,04,10.80
2013,09,18,03,05,10.80
2013,09,18,03,06,10.80
2013,09,18,03,07,10.80
2013,09,18,03,08,10.70
2013,09,18,03,09,10.70
2013,09,18,03,10,10.70
2013,09,18,03,11,10.70
2013,09,18,03,12,10.70
2013,09,18,03,13,10.70
2013,09,18,03,14,10.70
2013,09,18,03,15,10.70
2013,09,18,03,16,10.60
2013,09,18,03,17,10.60
2013,09,18,03,18,10.60
2013,09,18,03,19,10.60
2013,09,18,03,20,10.60
2013,09,18,03,21,10.60
2013,09,18,03,22,10.60
2013,09,18,03,23,10.50
2013,09,18,03,24,10.50
2013,09,18,03,25,10.50
2013,09,18,03,26,10.40
2013,09,18,03,27,10.40
2013,09,18,03,28,10.40
2013,09,18,03,29,10.30
2013,09,18,03,30,10.30
2013,09,18,03,31,10.20
2013,09,18,03,32,10.20
2013,09,18,03,33,10.20
2013,09,18,03,34,10.20
2013,09,18,03,35,10.20
2013,09,18,03,36,10.20
2013,09,18,03,37,10.10
2013,09,18,03,38,10.10
2013,09,18,03,39,10.10
2013,09,18,03,40,10.10
2013,09,18,03,41,10.10
2013,09,18,03,42,10.10
2013,09,18,03,43,10.10
2013,09,18,03,44,10.10
2013,09,18,03,45,10.10
2013,09,18,03,46,10.10
2013,09,18,03,47,10.10
2013,09,18,03,48,10.10
2013,09,18,03,49,10.10
2013,09,18,03,50,10.10
2013,09,18,03,51,10.00
2013,09,18,03,52,10.00
2013,09,18,03,53,10.00
2013,09,18,03,54,10.00
2013,09,18,03,55,9.90
2013,09,18,03,56,9.90
2013,09,18,03,57,9.90
2013,09,18,03,58,9.90
2013,09,18,03,59,9.80
2013,09,18,04,00,9.80
2013,09,18,04,01,9.80
2013,09,18,04,02,9.80
2013,09,18,04,03,9.80
2013,09,18,04,04,9.70
2013,09,18,04,05,9.70
2013,09,18,04,06,9.70
2013,09,18,04,07,9.70
2013,09,18,04,08,9.70
2013,09,18,04,09,9.70
2013,09,18,04,10,9.70
2013,09,18,04,11,9.70
2013,09,18,04,12,9.70
2013,09,18,04,13,9.70
2013,09,18,04,14,9.70
2013,09,18,04,15,9.70
2013,09,18,04,16,9.70
2013,09,18,04,17,9.70
2013,09,18,04,18,9.70
2013,09,18,04,19,9.70
2013,09,18,04,20,9.70
2013,09,18,04,21,9.70
2013,09,18,04,22,9.70
2013,09,18,04,23,9.70
2013,09,18,04,24,9.70
2013,09,18,04,25,9.60
2013,09,18,04,26,9.60
2013,09,18,04,27,9.60
2013,09,18,04,28,9.60
2013,09,18,04,29,9.60
2013,09,18,04,30,9.60
2013,09,18,04,31,9.60
2013,09,18,04,32,9.60
2013,09,18,04,33,9.60
2013,09,18,04,34,9.60
2013,09,18,04,35,9.60
2013,09,18,04,36,9.60
2013,09,18,04,37,9.50
2013,09,18,04,38,9.50
2013,09,18,04,39,9.50
2013,09,18,04,40,9.50
2013,09,18,04,41,9.50
2013,09,18,04,42,9.50
2013,09,18,04,43,9.50
2013,09,18,04,44,9.50
2013,09,18,04,45,9.50
2013,09,18,04,46,9.50
2013,09,18,04,47,9.50
2013,09,18,04,48,9.50
2013,09,18,04,49,9.50
2013,09,18,04,50,9.50
2013,09,18,04,51,9.50
2013,09,18,04,52,9.50
2013,09,18,04,53,9.50
2013,09,18,04,54,9.50
2013,09,18,04,55,9.50
2013,09,18,04,56,9.50
2013,09,18,04,57,9.50
2013,09,18,04,58,9.50
2013,09,18,04,59,9.40
2013,09,18,05,00,9.40
2013,09,18,05,01,9.40
2013,09,18,05,02,9.50
2013,09,18,05,03,9.50
2013,09,18,05,04,9.50
2013,09,18,05,05,9.50
2013,09,18,05,06,9.60
2013,09,18,05,07,9.60
2013,09,18,05,08,9.50
2013,09,18,05,09,9.50
2013,09,18,05,10,9.50
2013,09,18,05,11,9.50
2013,09,18,05,12,9.50
2013,09,18,05,13,9.50
2013,09,18,05,14,9.50
2013,09,18,05,15,9.50
2013,09,18,05,16,9.50
2013,09,18,05,17,9.50
2013,09,18,05,18,9.50
2013,09,18,05,19,9.50
2013,09,18,05,20,9.50
2013,09,18,05,21,9.50
2013,09,18,05,22,9.50
2013,09,18,05,23,9.40
2013,09,18,05,24,9.40
2013,09,18,05,25,9.40
2013,09,18,05,26,9.40
2013,09,18,05,27,9.30
2013,09,18,05,28,9.30
2013,09,18,05,29,9.30
2013,09,18,05,30,9.20
2013,09,18,05,31,9.20
2013,09,18,05,32,9.20
2013,09,18,05,33,9.10
2013,09,18,05,34,9.10
2013,09,18,05,35,9.10
2013,09,18,05,36,9.10
2013,09,18,05,37,9.00
2013,09,18,05,38,9.00
2013,09,18,05,39,9.00
2013,09,18,05,40,9.00
2013,09,18,05,41,9.00
2013,09,18,05,42,9.00
2013,09,18,05,43,9.00
2013,09,18,05,44,9.00
2013,09,18,05,45,9.00
2013,09,18,05,46,9.00
2013,09,18,05,47,8.90
2013,09,18,05,48,8.90
2013,09,18,05,49,8.90
2013,09,18,05,50,8.90
2013,09,18,05,51,8.80
2013,09,18,05,52,8.80
2013,09,18,05,53,8.80
2013,09,18,05,54,8.80
2013,09,18,05,55,8.90
2013,09,18,05,56,8.90
2013,09,18,05,57,8.90
2013,09,18,05,58,8.90
2013,09,18,05,59,8.90
2013,09,18,06,00,8.90
2013,09,18,06,01,8.90
2013,09,18,06,02,8.90
2013,09,18,06,03,8.90
2013,09,18,06,04,8.90
2013,09,18,06,05,8.90
2013,09,18,06,06,8.90
2013,09,18,06,07,8.90
2013,09,18,06,08,8.80
2013,09,18,06,09,8.80
2013,09,18,06,10,8.80
2013,09,18,06,11,8.80
2013,09,18,06,12,8.80
2013,09,18,06,13,8.80
2013,09,18,06,14,8.80
2013,09,18,06,15,8.80
2013,09,18,06,16,8.80
2013,09,18,06,17,8.80
2013,09,18,06,18,8.80
2013,09,18,06,19,8.80
2013,09,18,06,20,8.70
2013,09,18,06,21,8.70
2013,09,18,06,22,8.70
2013,09,18,06,23,8.70
2013,09,18,06,24,8.60
2013,09,18,06,25,8.60
2013,09,18,06,26,8.60
2013,09,18,06,27,8.60
2013,09,18,06,28,8.60
2013,09,18,06,29,8.60
2013,09,18,06,30,8.50
2013,09,18,06,31,8.50
2013,09,18,06,32,8.60
2013,09,18,06,33,8.60
2013,09,18,06,34,8.60
2013,09,18,06,35,8.60
2013,09,18,06,36,8.60
2013,09,18,06,37,8.70
2013,09,18,06,38,8.70
2013,09,18,06,39,8.70
2013,09,18,06,40,8.70
2013,09,18,06,41,8.70
2013,09,18,06,42,8.70
2013,09,18,06,43,8.70
2013,09,18,06,44,8.60
2013,09,18,06,45,8.60
2013,09,18,06,46,8.60
2013,09,18,06,47,8.60
2013,09,18,06,48,8.60
2013,09,18,06,49,8.60
2013,09,18,06,50,8.60
2013,09,18,06,51,8.60
2013,09,18,06,52,8.60
2013,09,18,06,53,8.60
2013,09,18,06,54,8.60
2013,09,18,06,55,8.60
2013,09,18,06,56,8.60
2013,09,18,06,57,8.60
2013,09,18,06,58,8.60
2013,09,18,06,59,8.60
2013,09,18,07,00,8.60
2013,09,18,07,01,8.60
2013,09,18,07,02,8.50
2013,09,18,07,03,8.50
2013,09,18,07,04,8.50
2013,09,18,07,05,8.50
2013,09,18,07,06,8.40
2013,09,18,07,07,8.40
2013,09,18,07,08,8.40
2013,09,18,07,09,8.40
2013,09,18,07,10,8.40
2013,09,18,07,11,8.50
2013,09,18,07,12,8.50
2013,09,18,07,13,8.60
2013,09,18,07,14,8.60
2013,09,18,07,15,8.60
2013,09,18,07,16,8.60
2013,09,18,07,17,8.60
2013,09,18,07,18,8.60
2013,09,18,07,19,8.60
2013,09,18,07,20,8.60
2013,09,18,07,21,8.60
2013,09,18,07,22,8.60
2013,09,18,07,23,8.60
2013,09,18,07,24,8.60
2013,09,18,07,25,8.60
2013,09,18,07,26,8.60
2013,09,18,07,27,8.60
2013,09,18,07,28,8.50
2013,09,18,07,29,8.50
2013,09,18,07,30,8.50
2013,09,18,07,31,8.50
2013,09,18,07,32,8.50
2013,09,18,07,33,8.50
2013,09,18,07,34,8.50
2013,09,18,07,35,8.60
2013,09,18,07,36,8.70
2013,09,18,07,37,8.70
2013,09,18,07,38,8.80
2013,09,18,07,39,8.70
2013,09,18,07,40,8.70
2013,09,18,07,41,8.70
2013,09,18,07,42,8.70
2013,09,18,07,43,8.80
2013,09,18,07,44,8.80
2013,09,18,07,45,8.80
2013,09,18,07,46,8.80
2013,09,18,07,47,8.80
2013,09,18,07,48,8.80
2013,09,18,07,49,8.80
2013,09,18,07,50,8.80
2013,09,18,07,51,8.90
2013,09,18,07,52,8.90
2013,09,18,07,53,8.90
2013,09,18,07,54,8.90
2013,09,18,07,55,9.00
2013,09,18,07,56,9.00
2013,09,18,07,57,9.00
2013,09,18,07,58,9.00
2013,09,18,07,59,9.10
2013,09,18,08,00,9.10
2013,09,18,08,01,9.10
2013,09,18,08,02,9.10
2013,09,18,08,03,9.10
2013,09,18,08,04,9.20
2013,09,18,08,05,9.20
2013,09,18,08,06,9.20
2013,09,18,08,07,9.30
2013,09,18,08,08,9.30
2013,09,18,08,09,9.40
2013,09,18,08,10,9.40
2013,09,18,08,11,9.50
2013,09,18,08,12,9.60
2013,09,18,08,13,9.60
2013,09,18,08,14,9.70
2013,09,18,08,15,9.70
2013,09,18,08,16,9.80
2013,09,18,08,17,9.80
2013,09,18,08,18,9.80
2013,09,18,08,19,9.90
2013,09,18,08,20,9.90
2013,09,18,08,21,10.00
2013,09,18,08,22,10.10
2013,09,18,08,23,10.10
2013,09,18,08,24,10.20
2013,09,18,08,25,10.20
2013,09,18,08,26,10.30
2013,09,18,08,27,10.30
2013,09,18,08,28,10.40
2013,09,18,08,29,10.50
2013,09,18,08,30,10.60
2013,09,18,08,31,10.70
2013,09,18,08,32,10.80
2013,09,18,08,33,10.90
2013,09,18,08,34,11.00
2013,09,18,08,35,11.10
2013,09,18,08,36,11.20
2013,09,18,08,37,11.30
2013,09,18,08,38,11.40
2013,09,18,08,39,11.50
2013,09,18,08,40,11.60
2013,09,18,08,41,11.70
2013,09,18,08,42,11.80
2013,09,18,08,43,11.90
2013,09,18,08,44,12.00
2013,09,18,08,45,12.10
2013,09,18,08,46,12.20
2013,09,18,08,47,12.30
2013,09,18,08,48,12.40
2013,09,18,08,49,12.50
2013,09,18,08,50,12.60
2013,09,18,08,51,12.70
2013,09,18,08,52,12.80
2013,09,18,08,53,12.90
2013,09,18,08,54,13.00
2013,09,18,08,55,13.10
2013,09,18,08,56,13.20
2013,09,18,08,57,13.20
2013,09,18,08,58,13.30
2013,09,18,08,59,13.30
2013,09,18,09,00,13.40
2013,09,18,09,01,13.50
2013,09,18,09,02,13.60
2013,09,18,09,03,13.70
2013,09,18,09,04,13.80
2013,09,18,09,05,14.00
2013,09,18,09,06,14.10
2013,09,18,09,07,14.20
2013,09,18,09,08,14.20
2013,09,18,09,09,14.30
2013,09,18,09,10,14.40
2013,09,18,09,11,14.40
2013,09,18,09,12,14.50
2013,09,18,09,13,14.60
2013,09,18,09,14,14.60
2013,09,18,09,15,14.60
2013,09,18,09,16,14.50
2013,09,18,09,17,14.40
2013,09,18,09,18,14.30
2013,09,18,09,19,14.20
2013,09,18,09,20,14.20
2013,09,18,09,21,14.10
2013,09,18,09,22,14.10
2013,09,18,09,23,14.10
2013,09,18,09,24,14.10
2013,09,18,09,25,14.10
2013,09,18,09,26,14.10
2013,09,18,09,27,14.20
2013,09,18,09,28,14.30
2013,09,18,09,29,14.40
2013,09,18,09,30,14.50
2013,09,18,09,31,14.60
2013,09,18,09,32,14.70
2013,09,18,09,33,14.80
2013,09,18,09,34,14.80
2013,09,18,09,35,14.90
2013,09,18,09,36,14.90
2013,09,18,09,37,14.90
2013,09,18,09,38,14.90
2013,09,18,09,39,14.90
2013,09,18,09,40,14.80
2013,09,18,09,41,14.80
2013,09,18,09,42,14.80
2013,09,18,09,43,14.90
2013,09,18,09,44,14.90
2013,09,18,09,45,15.00
2013,09,18,09,46,15.00
2013,09,18,09,47,15.10
2013,09,18,09,48,15.10
2013,09,18,09,49,15.20
2013,09,18,09,50,15.20
2013,09,18,09,51,15.20
2013,09,18,09,52,15.20
2013,09,18,09,53,15.20
2013,09,18,09,54,15.20
2013,09,18,09,55,15.20
2013,09,18,09,56,15.20
2013,09,18,09,57,15.20
2013,09,18,09,58,15.20
2013,09,18,09,59,15.20
2013,09,18,10,00,15.10
2013,09,18,10,01,15.10
2013,09,18,10,02,15.00
2013,09,18,10,03,15.00
2013,09,18,10,04,14.90
2013,09,18,10,05,14.90
2013,09,18,10,06,14.80
2013,09,18,10,07,14.80
2013,09,18,10,08,14.80
2013,09,18,10,09,14.80
2013,09,18,10,10,14.90
2013,09,18,10,11,14.90
2013,09,18,10,12,15.00
2013,09,18,10,13,15.10
2013,09,18,10,14,15.10
2013,09,18,10,15,15.20
2013,09,18,10,16,15.20
2013,09,18,10,17,15.30
2013,09,18,10,18,15.40
2013,09,18,10,19,15.40
2013,09,18,10,20,15.50
2013,09,18,10,21,15.50
2013,09,18,10,22,15.50
2013,09,18,10,23,15.60
2013,09,18,10,24,15.60
2013,09,18,10,25,15.70
2013,09,18,10,26,15.70
2013,09,18,10,27,15.80
2013,09,18,10,28,15.90
2013,09,18,10,29,15.90
2013,09,18,10,30,16.00
2013,09,18,10,31,16.00
2013,09,18,10,32,16.00
2013,09,18,10,33,16.00
2013,09,18,10,34,16.00
2013,09,18,10,35,16.00
2013,09,18,10,36,16.00
2013,09,18,10,37,16.00
2013,09,18,10,38,16.00
2013,09,18,10,39,15.90
2013,09,18,10,40,15.90
2013,09,18,10,41,15.90
2013,09,18,10,42,15.90
2013,09,18,10,43,15.80
2013,09,18,10,44,15.80
2013,09,18,10,45,15.80
2013,09,18,10,46,15.70
2013,09,18,10,47,15.70
2013,09,18,10,48,15.70
2013,09,18,10,49,15.70
2013,09,18,10,50,15.70
2013,09,18,10,51,15.80
2013,09,18,10,52,15.80
2013,09,18,10,53,15.80
2013,09,18,10,54,15.80
2013,09,18,10,55,15.90
2013,09,18,10,56,16.00
2013,09,18,10,57,16.00
2013,09,18,10,58,16.10
2013,09,18,10,59,16.30
2013,09,18,11,00,16.40
2013,09,18,11,01,16.50
2013,09,18,11,02,16.60
2013,09,18,11,03,16.70
2013,09,18,11,04,16.80
2013,09,18,11,05,16.80
2013,09,18,11,06,16.80
2013,09,18,11,07,16.80
2013,09,18,11,08,16.80
2013,09,18,11,09,16.80
2013,09,18,11,10,16.80
2013,09,18,11,11,16.80
2013,09,18,11,12,16.80
2013,09,18,11,13,16.80
2013,09,18,11,14,16.80
2013,09,18,11,15,16.90
2013,09,18,11,16,17.00
2013,09,18,11,17,17.10
2013,09,18,11,18,17.20
2013,09,18,11,19,17.30
2013,09,18,11,20,17.30
2013,09,18,11,21,17.30
2013,09,18,11,22,17.30
2013,09,18,11,23,17.30
2013,09,18,11,24,17.40
2013,09,18,11,25,17.40
2013,09,18,11,26,17.40
2013,09,18,11,27,17.30
2013,09,18,11,28,17.20
2013,09,18,11,29,17.20
2013,09,18,11,30,17.10
2013,09,18,11,31,17.10
2013,09,18,11,32,17.10
2013,09,18,11,33,17.00
2013,09,18,11,34,17.00
2013,09,18,11,35,16.90
2013,09,18,11,36,16.90
2013,09,18,11,37,17.00
2013,09,18,11,38,17.10
2013,09,18,11,39,17.20
2013,09,18,11,40,17.30
2013,09,18,11,41,17.40
2013,09,18,11,42,17.40
2013,09,18,11,43,17.50
2013,09,18,11,44,17.50
2013,09,18,11,45,17.50
2013,09,18,11,46,17.40
2013,09,18,11,47,17.40
2013,09,18,11,48,17.40
2013,09,18,11,49,17.40
2013,09,18,11,50,17.40
2013,09,18,11,51,17.40
2013,09,18,11,52,17.40
2013,09,18,11,53,17.50
2013,09,18,11,54,17.50
2013,09,18,11,55,17.60
2013,09,18,11,56,17.60
2013,09,18,11,57,17.60
2013,09,18,11,58,17.60
2013,09,18,11,59,17.70
2013,09,18,12,00,17.70
2013,09,18,12,01,17.70
2013,09,18,12,02,17.70
2013,09,18,12,03,17.80
2013,09,18,12,04,17.80
2013,09,18,12,05,17.90
2013,09,18,12,06,17.90
2013,09,18,12,07,18.00
2013,09,18,12,08,18.00
2013,09,18,12,09,18.00
2013,09,18,12,10,18.00
2013,09,18,12,11,18.00
2013,09,18,12,12,18.00
2013,09,18,12,13,18.00
2013,09,18,12,14,17.90
2013,09,18,12,15,17.90
2013,09,18,12,16,17.90
2013,09,18,12,17,18.00
2013,09,18,12,18,18.10
2013,09,18,12,19,18.10
2013,09,18,12,20,18.20
2013,09,18,12,21,18.30
2013,09,18,12,22,18.30
2013,09,18,12,23,18.30
2013,09,18,12,24,18.30
2013,09,18,12,25,18.30
2013,09,18,12,26,18.30
2013,09,18,12,27,18.30
2013,09,18,12,28,18.30
2013,09,18,12,29,18.30
2013,09,18,12,30,18.30
2013,09,18,12,31,18.30
2013,09,18,12,32,18.30
2013,09,18,12,33,18.30
2013,09,18,12,34,18.20
2013,09,18,12,35,18.10
2013,09,18,12,36,18.00
2013,09,18,12,37,17.90
2013,09,18,12,38,17.90
2013,09,18,12,39,17.80
2013,09,18,12,40,17.80
2013,09,18,12,41,17.80
2013,09,18,12,42,17.80
2013,09,18,12,43,17.80
2013,09,18,12,44,17.70
2013,09,18,12,45,17.60
2013,09,18,12,46,17.60
2013,09,18,12,47,17.70
2013,09,18,12,48,17.70
2013,09,18,12,49,17.80
2013,09,18,12,50,17.90
2013,09,18,12,51,17.90
2013,09,18,12,52,18.00
2013,09,18,12,53,18.00
2013,09,18,12,54,18.00
2013,09,18,12,55,18.00
2013,09,18,12,56,18.00
2013,09,18,12,57,18.00
2013,09,18,12,58,18.00
2013,09,18,12,59,18.00
2013,09,18,13,00,18.00
2013,09,18,13,01,18.10
2013,09,18,13,02,18.10
2013,09,18,13,03,18.10
2013,09,18,13,04,18.20
2013,09,18,13,05,18.20
2013,09,18,13,06,18.20
2013,09,18,13,07,18.20
2013,09,18,13,08,18.20
2013,09,18,13,09,18.10
2013,09,18,13,10,18.10
2013,09,18,13,11,18.20
2013,09,18,13,12,18.20
2013,09,18,13,13,18.20
2013,09,18,13,14,18.30
2013,09,18,13,15,18.30
2013,09,18,13,16,18.30
2013,09,18,13,17,18.40
2013,09,18,13,18,18.50
2013,09,18,13,19,18.50
2013,09,18,13,20,18.60
2013,09,18,13,21,18.60
2013,09,18,13,22,18.60
2013,09,18,13,23,18.70
2013,09,18,13,24,18.70
2013,09,18,13,25,18.80
2013,09,18,13,26,18.80
2013,09,18,13,27,18.80
2013,09,18,13,28,18.80
2013,09,18,13,29,18.80
2013,09,18,13,30,18.80
2013,09,18,13,31,18.80
2013,09,18,13,32,18.80
2013,09,18,13,33,18.80
2013,09,18,13,34,18.80
2013,09,18,13,35,18.70
2013,09,18,13,36,18.70
2013,09,18,13,37,18.60
2013,09,18,13,38,18.60
2013,09,18,13,39,18.50
2013,09,18,13,40,18.40
2013,09,18,13,41,18.30
2013,09,18,13,42,18.20
2013,09,18,13,43,18.10
2013,09,18,13,44,18.10
2013,09,18,13,45,18.20
2013,09,18,13,46,18.20
2013,09,18,13,47,18.20
2013,09,18,13,48,18.20
2013,09,18,13,49,18.20
2013,09,18,13,50,18.20
2013,09,18,13,51,18.20
2013,09,18,13,52,18.20
2013,09,18,13,53,18.20
2013,09,18,13,54,18.20
2013,09,18,13,55,18.30
2013,09,18,13,56,18.30
2013,09,18,13,57,18.30
2013,09,18,13,58,18.30
2013,09,18,13,59,18.30
2013,09,18,14,00,18.30
2013,09,18,14,01,18.30
2013,09,18,14,02,18.30
2013,09,18,14,03,18.40
2013,09,18,14,04,18.40
2013,09,18,14,05,18.40
2013,09,18,14,06,18.40
2013,09,18,14,07,18.50
2013,09,18,14,08,18.50
2013,09,18,14,09,18.50
2013,09,18,14,10,18.60
2013,09,18,14,11,18.50
2013,09,18,14,12,18.40
2013,09,18,14,13,18.30
2013,09,18,14,14,18.20
2013,09,18,14,15,18.20
2013,09,18,14,16,18.20
2013,09,18,14,17,18.10
2013,09,18,14,18,18.10
2013,09,18,14,19,18.00
2013,09,18,14,20,18.00
2013,09,18,14,21,18.00
2013,09,18,14,22,17.90
2013,09,18,14,23,17.90
2013,09,18,14,24,18.00
2013,09,18,14,25,18.00
2013,09,18,14,26,17.90
2013,09,18,14,27,17.90
2013,09,18,14,28,17.90
2013,09,18,14,29,17.90
2013,09,18,14,30,17.90
2013,09,18,14,31,17.80
2013,09,18,14,32,17.80
2013,09,18,14,33,17.80
2013,09,18,14,34,17.70
2013,09,18,14,35,17.60
2013,09,18,14,36,17.50
2013,09,18,14,37,17.50
2013,09,18,14,38,17.40
2013,09,18,14,39,17.30
2013,09,18,14,40,17.30
2013,09,18,14,41,17.20
2013,09,18,14,42,17.20
2013,09,18,14,43,17.10
2013,09,18,14,44,17.10
2013,09,18,14,45,17.00
2013,09,18,14,46,17.00
2013,09,18,14,47,17.00
2013,09,18,14,48,16.90
2013,09,18,14,49,16.90
2013,09,18,14,50,16.90
2013,09,18,14,51,16.90
2013,09,18,14,52,16.90
2013,09,18,14,53,17.00
2013,09,18,14,54,17.00
2013,09,18,14,55,17.00
2013,09,18,14,56,17.10
2013,09,18,14,57,17.10
2013,09,18,14,58,17.10
2013,09,18,14,59,17.10
2013,09,18,15,00,17.10
2013,09,18,15,01,17.10
2013,09,18,15,02,17.10
2013,09,18,15,03,17.10
2013,09,18,15,04,17.10
2013,09,18,15,05,17.10
2013,09,18,15,06,17.10
2013,09,18,15,07,17.10
2013,09,18,15,08,17.10
2013,09,18,15,09,17.20
2013,09,18,15,10,17.20
2013,09,18,15,11,17.20
2013,09,18,15,12,17.30
2013,09,18,15,13,17.30
2013,09,18,15,14,17.30
2013,09,18,15,15,17.30
2013,09,18,15,16,17.40
2013,09,18,15,17,17.40
2013,09,18,15,18,17.40
2013,09,18,15,19,17.50
2013,09,18,15,20,17.50
2013,09,18,15,21,17.50
2013,09,18,15,22,17.50
2013,09,18,15,23,17.60
2013,09,18,15,24,17.60
2013,09,18,15,25,17.70
2013,09,18,15,26,17.80
2013,09,18,15,27,17.90
2013,09,18,15,28,18.00
2013,09,18,15,29,18.10
2013,09,18,15,30,18.20
2013,09,18,15,31,18.30
2013,09,18,15,32,18.30
2013,09,18,15,33,18.30
2013,09,18,15,34,18.30
2013,09,18,15,35,18.30
2013,09,18,15,36,18.30
2013,09,18,15,37,18.20
2013,09,18,15,38,18.10
2013,09,18,15,39,18.10
2013,09,18,15,40,18.10
2013,09,18,15,41,18.10
2013,09,18,15,42,18.10
2013,09,18,15,43,18.10
2013,09,18,15,44,18.10
2013,09,18,15,45,18.10
2013,09,18,15,46,18.10
2013,09,18,15,47,18.10
2013,09,18,15,48,18.10
2013,09,18,15,49,18.20
2013,09,18,15,50,18.20
2013,09,18,15,51,18.20
2013,09,18,15,52,18.20
2013,09,18,15,53,18.30
2013,09,18,15,54,18.30
2013,09,18,15,55,18.20
2013,09,18,15,56,18.20
2013,09,18,15,57,18.20
2013,09,18,15,58,18.20
2013,09,18,15,59,18.20
2013,09,18,16,00,18.20
2013,09,18,16,01,18.20
2013,09,18,16,02,18.20
2013,09,18,16,03,18.20
2013,09,18,16,04,18.20
2013,09,18,16,05,18.20
2013,09,18,16,06,18.20
2013,09,18,16,07,18.20
2013,09,18,16,08,18.10
2013,09,18,16,09,18.10
2013,09,18,16,10,18.00
2013,09,18,16,11,18.00
2013,09,18,16,12,17.90
2013,09,18,16,13,17.90
2013,09,18,16,14,17.80
2013,09,18,16,15,17.80
2013,09,18,16,16,17.70
2013,09,18,16,17,17.70
2013,09,18,16,18,17.70
2013,09,18,16,19,17.60
2013,09,18,16,20,17.60
2013,09,18,16,21,17.60
2013,09,18,16,22,17.60
2013,09,18,16,23,17.60
2013,09,18,16,24,17.60
2013,09,18,16,25,17.70
2013,09,18,16,26,17.70
2013,09,18,16,27,17.70
2013,09,18,16,28,17.70
2013,09,18,16,29,17.70
2013,09,18,16,30,17.70
2013,09,18,16,31,17.70
2013,09,18,16,32,17.70
2013,09,18,16,33,17.60
2013,09,18,16,34,17.60
2013,09,18,16,35,17.70
2013,09,18,16,36,17.70
2013,09,18,16,37,17.70
2013,09,18,16,38,17.70
2013,09,18,16,39,17.70
2013,09,18,16,40,17.70
2013,09,18,16,41,17.60
2013,09,18,16,42,17.60
2013,09,18,16,43,17.60
2013,09,18,16,44,17.60
2013,09,18,16,45,17.60
2013,09,18,16,46,17.60
2013,09,18,16,47,17.70
2013,09,18,16,48,17.70
2013,09,18,16,49,17.70
2013,09,18,16,50,17.70
2013,09,18,16,51,17.70
2013,09,18,16,52,17.70
2013,09,18,16,53,17.70
2013,09,18,16,54,17.70
2013,09,18,16,55,17.60
2013,09,18,16,56,17.60
2013,09,18,16,57,17.60
2013,09,18,16,58,17.60
2013,09,18,16,59,17.60
2013,09,18,17,00,17.60
2013,09,18,17,01,17.60
2013,09,18,17,02,17.60
2013,09,18,17,03,17.70
2013,09,18,17,04,17.70
2013,09,18,17,05,17.70
2013,09,18,17,06,17.70
2013,09,18,17,07,17.60
2013,09,18,17,08,17.60
2013,09,18,17,09,17.60
2013,09,18,17,10,17.60
2013,09,18,17,11,17.60
2013,09,18,17,12,17.60
2013,09,18,17,13,17.60
2013,09,18,17,14,17.60
2013,09,18,17,15,17.60
2013,09,18,17,16,17.60
2013,09,18,17,17,17.60
2013,09,18,17,18,17.60
2013,09,18,17,19,17.50
2013,09,18,17,20,17.50
2013,09,18,17,21,17.50
2013,09,18,17,22,17.50
2013,09,18,17,23,17.40
2013,09,18,17,24,17.40
2013,09,18,17,25,17.40
2013,09,18,17,26,17.30
2013,09,18,17,27,17.30
2013,09,18,17,28,17.30
2013,09,18,17,29,17.20
2013,09,18,17,30,17.20
2013,09,18,17,31,17.20